Regional Weather Roundup
Issued by NWS

Home | Current Version | Previous Version | Text Only | Print | Product List | Glossary On
Versions: 1 2 3 4 5 6 7 8 9 10 11 12 13 14 15 16 17 18 19 20 21 22 23 24 25 26 27 28 29 30 31 32 33 34 35 36 37 38 39 40 41 42 43 44 45 46 47 48 49 50
000
ASUS42 KKEY 252110
RWRKEY

FLORIDA REGIONAL WEATHER ROUNDUP FOR THE FLORIDA KEYS
NATIONAL WEATHER SERVICE KEY WEST FLORIDA
400 PM EST THU DEC 25 2014

...SOUTH FLORIDA AND THE KEYS...

CITY           SKY/WX    TMP DP  RH WIND       PRES   REMARKS
FORT MYERS     MOSUNNY   71  53  52 NE9       30.13F
SW REGIONAL AP MOSUNNY   71  52  50 NE12      30.14F
NAPLES         SUNNY     72  54  53 N12       30.13S
MIAMI          CLOUDY    71  60  68 N9        30.13S
WEST KENDALL   CLOUDY    73  60  63 NE13      30.13R
HOMESTEAD      CLOUDY    72  62  71 N14       30.11S
MARATHON       CLOUDY    74  66  76 N8        30.11R
BOCA CHICA NAS LGT RAIN  73  63  70 N18       30.11S
KEY WEST INTL  MOSUNNY   73  63  70 N13G22    30.11S

...INTERNATIONAL WEATHER...

CITY           SKY/WX    TMP DP  RH WIND       PRES   REMARKS
NASSAU BAHAMAS NOT AVBL
CANCUN MEXICO  CLOUDY    75  70  83 N5        30.06F
COZUMEL MEXICO CLOUDY    73  70  88 N9        30.06F

ADJACENT COASTAL WATERS...

STATION/POSITION TIME  SKY/WX   TEMP    WIND        PRES    WAVE
                                AIR SEA DIR/SP/G            HT/PER
                 (UTC)          (F)     (DEG/KT/KT) (MB)    (FT/S)
PULASKI SHOAL LI 2000            70      40/ 18/ 19 1019.8F
SAND KEY         2040            70      20/ 19/ 22 1019.5S
SOMBRERO KEY     2100            72     360/ 14/ 15 1019.9R
LONG KEY         2100            73 75   50/ 15/ 17 1020.1R
MOLASSES REEF    2100            71 78   30/ 20/ 22 1018.9S
FOWEY ROCKS      NOT AVBL
Buoy 42080       NOT AVBL

$$


USA.gov is the U.S. government's official web portal to all federal, state and local government web resources and services.